{"data":{"norad_id":63730,"intl_designator":"2025-088G","name":"KUIPER-00014","alt_names":[],"object_type":"PAYLOAD","status":"ACTIVE","operator":null,"country":"US","launch_date":"2025-04-28","launch_site_code":"AFETR","launch_vehicle":null,"mission":null,"orbit_class":"UNKNOWN","rcs_meters":null,"size_class":null,"mass_kg":null,"dimensions":null,"purposes":[],"wikipedia_slug":null,"has_3d_model":false,"image_url":null,"decayed_at":null,"tle_current":{"epoch":"2026-05-25T02:59:13.974720Z","epoch_age_seconds":54512,"freshness":"FRESH","line1":"1 63730U 25088G   26145.12446730  .00001043  00000+0  16574-3 0  9990","line2":"2 63730  51.9010 130.0545 0000301  38.0723 322.0261 14.79928886 58700","mean_motion":14.79928886,"eccentricity":3.01e-5,"inclination_deg":51.901,"raan_deg":130.0545,"arg_perigee_deg":38.0723,"mean_anomaly_deg":322.0261,"bstar":0.00016574,"rev_number":5870,"period_min":97.301972657083,"perigee_km":629.33768474658,"apogee_km":629.75954742067,"semimajor_km":7007.6856160836,"source":"CELESTRAK","updated_at":"2026-05-25T13:38:03.925827Z"}}}